Location: Aldenham
(51.6667°N, 0.3500°W)
Time: 02:23:18
(UTC+00:00)

Altair - Pass Details

Date: 23 February 2026
Orbit: 1502 x 1682 km, 47.2° (Epoch: 13 March)

Event Time Altitude Azimuth Distance (km) Brightness Sun altitude
Rises 11:11:01 0° 283° (WNW) 4,732 9.8 27.1°
Reaches altitude 10° 11:16:29 10° 258° (WSW) 3,785 9.6 27.3°
Maximum altitude 11:20:07 13° 235° (SW) 3,593 9.8 27.5°
Drops below altitude 10° 11:23:47 10° 212° (SSW) 3,834 10.3 27.6°
Sets 11:29:28 0° 187° (S) 4,855 11.2 27.8°
